Regional Weather Roundup
Issued by NWS Jackson, KY

Home | Current Version | Previous Version | Graphics & Text | Print | Product List | Glossary Off
Versions: 1 2 3 4 5 6 7 8 9 10 11 12 13 14 15 16 17 18 19 20 21 22 23 24 25 26 27 28 29 30 31 32 33 34 35 36 37 38 39 40 41 42 43 44 45 46 47 48 49 50

000
ASUS43 KJKL 241910
RWRJKL

EAST KENTUCKY HOURLY WEATHER ROUNDUP
NATIONAL WEATHER SERVICE JACKSON KY
300 PM EDT THU MAY 24 2018

NOTE: "FAIR" INDICATES FEW OR NO CLOUDS BELOW 12,000 FEET WITH
NO SIGNIFICANT WEATHER AND/OR OBSTRUCTIONS TO VISIBILITY.

* THESE REPORTS ARE NOT UNDER NWS QUALITY CONTROL AND MAY NOT
  REPORT WEATHER SUCH AS PRECIPITATION AND FOG.

KYZ079-080-083-085-087-088-110-112-115-119-120-242000
...EASTERN KENTUCKY...

CITY           SKY/WX    TMP DP  RH WIND       PRES   REMARKS
JACKSON          N/A     82  63  52 VRB3      30.14F
LONDON           N/A     83  61  47 VRB3      30.12F
SOMERSET*        N/A     82  61  47 MISG      30.13F
MONTICELLO*      N/A     83  64  52 N12G20    30.13F
WILLIAMSBURG*    N/A     84  64  51 N6        30.11F
MIDDLESBORO*     N/A     84  60  44 CALM      30.10F
HARLAN APT*      N/A     83  57  40 CALM      30.13S
PIKE CO APT*     N/A     80  63  55 N5        30.14F
BIG SANDY APT*   N/A     83  62  48 NE3       30.14F
MOREHEAD APT*    N/A     81  57  44 VRB3      30.16F
ASHLAND*         N/A     81  57  43 CALM      30.14F
$$

KYZ035-036-041-042-044-050-067-078-099-242000
...CENTRAL KENTUCKY...

CITY           SKY/WX    TMP DP  RH WIND       PRES   REMARKS
MT STERLING*     N/A     81  55  41 E9        30.16F
FLEMING/MASON*   N/A     80  55  42 SE7       30.16F
DANVILLE*        N/A     79  63  57 NE6       30.15F
LEXINGTON        N/A     80  59  48 N10       30.15F
FRANKFORT        N/A     81  54  39 CALM      30.13F
LOUISVILLE       N/A     84  52  33 NE8       30.12F
LEBANON*         N/A     81  61  50 N7        30.13F
GLASGOW*         N/A     86  61  42 CALM      30.11F
BOWLING GREEN    N/A     85  66  53 E6        30.10F
$$

KYZ091>093-OHZ055-061-077-WVZ005-015-034-035-042-242000
...SOUTHERN OHIO/WEST VIRGINIA...

CITY           SKY/WX    TMP DP  RH WIND       PRES   REMARKS
COVINGTON        N/A     80  56  43 NE6       30.15F
COLUMBUS         N/A     81  48  31 E9G18     30.17F
DAYTON           N/A     80  52  37 SE8       30.18F
WILMINGTON       N/A     78  56  46 SE12      30.16F
HUNTINGTON       N/A     82  57  42 VRB3      30.13F
CHARLESTON       N/A     83  62  49 CALM      30.13F
PINEVILLE*       N/A     81  61  51 MISG      30.20F
BECKLEY          N/A     78  53  41 VRB6      30.21F
BLUEFIELD        N/A     76  60  57 E7        30.23F
LOGAN CO APT*    N/A     81  61  50 CALM      30.15F
$$

VAZ002-007-008-TNZ017-027-036-066-071-242000
...SOUTHWEST VIRGINIA/EAST TENNESSEE...

CITY           SKY/WX    TMP DP  RH WIND       PRES   REMARKS
WISE*          CLOUDY    77  61  57 S3        30.20F
JONESVILLE*      N/A     86  61  42 W5        30.13F
ABINGDON*      PTSUNNY   83  65  56 E7        30.17F
BRISTOL          N/A     83  67  58 VRB5      30.12F
MORRISTOWN*    PTCLDY    86  66  51 N7G15     30.09F
SEVIERVILLE*   PTCLDY    86  64  48 CALM      30.07F
KNOXVILLE        N/A     86  64  47 S3        30.06F
LAFOLLETTE*    PTCLDY    86  61  42 CALM      30.12F
OAK RIDGE        N/A     86  65  49 SW3       30.09F
CROSSVILLE     PTSUNNY   80  61  52 CALM      30.13F
NASHVILLE      PTSUNNY   89  58  34 N5        30.09F
$$

...KEY TO REMARKS...
VSB - VISIBILITY IN MILES
WCI - WIND CHILL INDEX
HX  - HEAT INDEX

$$



USA.gov is the U.S. government's official web portal to all federal, state and local government web resources and services.